Hourly Weather Otradinskiy

Today, 24 July, Saturday

Time Temperature Precipitation Wind Pressure Humidity
00:00 +16°C° 0 mm 2 mps 742 mmHg 80%
01:00 +15°C° 0 mm 2 mps 742 mmHg 81%
02:00 +16°C° 0 mm 2 mps 742 mmHg 80%
03:00 +15°C° 0 mm 2 mps 742 mmHg 83%
04:00 +15°C° 0 mm 2 mps 742 mmHg 85%
05:00 +15°C° 0 mm 2 mps 742 mmHg 88%
06:00 +16°C° 0 mm 3 mps 743 mmHg 80%
07:00 +18°C° 0 mm 3 mps 743 mmHg 71%
08:00 +20°C° 0 mm 3 mps 743 mmHg 62%
09:00 +21°C° 0 mm 4 mps 743 mmHg 57%
10:00 +22°C° 0 mm 5 mps 744 mmHg 51%
11:00 +22°C° 0 mm 5 mps 744 mmHg 45%
12:00 +22°C° 0 mm 5 mps 744 mmHg 46%
13:00 +22°C° 0 mm 4 mps 744 mmHg 47%
14:00 +22°C° 0 mm 4 mps 744 mmHg 48%
15:00 +22°C° 0 mm 4 mps 745 mmHg 50%
16:00 +21°C° 0 mm 3 mps 745 mmHg 51%
17:00 +21°C° 0 mm 3 mps 745 mmHg 53%
18:00 +19°C° 0 mm 2 mps 746 mmHg 58%
19:00 +18°C° 0 mm 2 mps 746 mmHg 63%
20:00 +16°C° 0 mm 1 mps 746 mmHg 68%
21:00 +15°C° 0 mm 1 mps 746 mmHg 70%
22:00 +14°C° 0 mm 1 mps 747 mmHg 72%
23:00 +14°C° 0 mm 1 mps 747 mmHg 75%

Tomorrow, 25 July, Sunday

Time Temperature Precipitation Wind Pressure Humidity
00:00 +13°C° 0 mm 1 mps 747 mmHg 75%
01:00 +13°C° 0 mm 1 mps 748 mmHg 76%
02:00 +12°C° 0 mm 0 mps 748 mmHg 77%
03:00 +13°C° 0 mm 1 mps 748 mmHg 76%
04:00 +13°C° 0 mm 1 mps 748 mmHg 75%
05:00 +13°C° 0 mm 1 mps 749 mmHg 75%
06:00 +15°C° 0 mm 1 mps 749 mmHg 68%
07:00 +19°C° 0 mm 1 mps 749 mmHg 61%
08:00 +21°C° 0 mm 1 mps 749 mmHg 54%
09:00 +22°C° 0 mm 1 mps 749 mmHg 49%
10:00 +23°C° 0 mm 1 mps 750 mmHg 45%
11:00 +24°C° 0 mm 1 mps 750 mmHg 40%
12:00 +24°C° 0 mm 2 mps 750 mmHg 39%
13:00 +25°C° 0 mm 2 mps 750 mmHg 39%
14:00 +25°C° 0 mm 2 mps 750 mmHg 38%
15:00 +25°C° 0 mm 2 mps 750 mmHg 40%
16:00 +25°C° 0 mm 2 mps 750 mmHg 42%
17:00 +25°C° 0 mm 1 mps 750 mmHg 43%
18:00 +23°C° 0 mm 2 mps 750 mmHg 48%
19:00 +20°C° 0 mm 2 mps 750 mmHg 53%
20:00 +18°C° 0 mm 2 mps 750 mmHg 57%
21:00 +17°C° 0 mm 2 mps 751 mmHg 59%
22:00 +16°C° 0 mm 2 mps 751 mmHg 60%
23:00 +15°C° 0 mm 2 mps 751 mmHg 61%

Day after tomorrow, 26 July, Monday

Time Temperature Precipitation Wind Pressure Humidity
00:00 +15°C° 0 mm 2 mps 751 mmHg 61%
01:00 +15°C° 0 mm 2 mps 751 mmHg 61%
02:00 +15°C° 0 mm 2 mps 751 mmHg 60%
03:00 +15°C° 0 mm 2 mps 751 mmHg 61%
04:00 +16°C° 0 mm 2 mps 751 mmHg 61%
05:00 +16°C° 0 mm 2 mps 752 mmHg 62%
06:00 +18°C° 0 mm 2 mps 752 mmHg 57%
07:00 +20°C° 0 mm 2 mps 752 mmHg 53%
08:00 +23°C° 0 mm 2 mps 752 mmHg 48%
09:00 +24°C° 0 mm 2 mps 752 mmHg 45%
10:00 +25°C° 0 mm 2 mps 752 mmHg 42%
11:00 +26°C° 0 mm 2 mps 752 mmHg 38%
12:00 +25°C° 0 mm 2 mps 752 mmHg 41%
13:00 +25°C° 0 mm 2 mps 752 mmHg 43%
14:00 +25°C° 0 mm 2 mps 752 mmHg 46%
15:00 +24°C° 0 mm 2 mps 752 mmHg 48%
16:00 +24°C° 0 mm 2 mps 751 mmHg 50%
17:00 +24°C° 0 mm 2 mps 751 mmHg 52%
18:00 +21°C° 0 mm 2 mps 751 mmHg 55%
19:00 +20°C° 0 mm 2 mps 751 mmHg 57%
20:00 +18°C° 0 mm 2 mps 751 mmHg 60%
21:00 +18°C° 0 mm 2 mps 751 mmHg 61%
22:00 +17°C° 0 mm 2 mps 751 mmHg 63%
23:00 +17°C° 0 mm 2 mps 752 mmHg 64%

27 July, Tuesday

Time Temperature Precipitation Wind Pressure Humidity
00:00 +16°C° 0 mm 2 mps 751 mmHg 65%
01:00 +16°C° 0 mm 2 mps 751 mmHg 65%
02:00 +16°C° 0 mm 2 mps 751 mmHg 66%
03:00 +16°C° 0 mm 1 mps 751 mmHg 66%
04:00 +16°C° 0 mm 1 mps 751 mmHg 66%
05:00 +16°C° 0 mm 1 mps 752 mmHg 66%
06:00 +19°C° 0 mm 1 mps 752 mmHg 61%
07:00 +21°C° 0 mm 1 mps 751 mmHg 55%
08:00 +24°C° 0 mm 1 mps 751 mmHg 49%
09:00 +25°C° 0 mm 1 mps 751 mmHg 45%
10:00 +26°C° 0 mm 1 mps 751 mmHg 41%
11:00 +28°C° 0 mm 1 mps 751 mmHg 37%
12:00 +28°C° 0 mm 1 mps 751 mmHg 36%
13:00 +29°C° 0 mm 1 mps 750 mmHg 36%
14:00 +27°C° 0 mm 0 mps 750 mmHg 35%
15:00 +29°C° 0 mm 1 mps 750 mmHg 37%
16:00 +29°C° 0 mm 1 mps 750 mmHg 39%
17:00 +28°C° 0 mm 1 mps 750 mmHg 40%
18:00 +26°C° 0 mm 1 mps 749 mmHg 45%
19:00 +24°C° 0 mm 1 mps 749 mmHg 49%
20:00 +22°C° 0 mm 1 mps 749 mmHg 54%
21:00 +22°C° 0 mm 1 mps 749 mmHg 55%
22:00 +21°C° 0 mm 1 mps 749 mmHg 57%
23:00 +20°C° 0 mm 1 mps 749 mmHg 58%

28 July, Wednesday

Time Temperature Precipitation Wind Pressure Humidity
00:00 +20°C° 0 mm 1 mps 749 mmHg 59%
01:00 +19°C° 0 mm 1 mps 749 mmHg 60%
02:00 +19°C° 0 mm 1 mps 749 mmHg 61%
03:00 +19°C° 0 mm 1 mps 748 mmHg 62%
04:00 +19°C° 0 mm 1 mps 748 mmHg 63%
05:00 +18°C° 0 mm 2 mps 748 mmHg 64%
06:00 +20°C° 0 mm 2 mps 748 mmHg 59%
07:00 +23°C° 0 mm 2 mps 748 mmHg 54%
08:00 +25°C° 0 mm 2 mps 748 mmHg 48%
09:00 +27°C° 0 mm 2 mps 747 mmHg 44%
10:00 +28°C° 0 mm 3 mps 747 mmHg 40%
11:00 +29°C° 0 mm 3 mps 747 mmHg 36%
12:00 +30°C° 0 mm 3 mps 746 mmHg 35%
13:00 +30°C° 0 mm 3 mps 746 mmHg 34%
14:00 +30°C° 0 mm 3 mps 745 mmHg 33%
15:00 +28°C° 0.1 mm 4 mps 745 mmHg 45%
16:00 +26°C° 0.1 mm 5 mps 745 mmHg 57%
17:00 +23°C° 0.1 mm 6 mps 745 mmHg 69%
18:00 +21°C° 0.1 mm 5 mps 745 mmHg 74%
19:00 +20°C° 0.1 mm 3 mps 745 mmHg 79%
20:00 +19°C° 0.1 mm 2 mps 745 mmHg 84%
21:00 +19°C° 0 mm 2 mps 744 mmHg 85%
22:00 +18°C° 0 mm 2 mps 744 mmHg 86%
23:00 +18°C° 0 mm 2 mps 744 mmHg 87%

29 July, Thursday

Time Temperature Precipitation Wind Pressure Humidity
00:00 +18°C° 0 mm 2 mps 743 mmHg 87%
01:00 +19°C° 0 mm 3 mps 743 mmHg 87%
02:00 +19°C° 0 mm 3 mps 742 mmHg 88%
03:00 +19°C° 0.2 mm 3 mps 742 mmHg 89%
04:00 +18°C° 0.2 mm 3 mps 742 mmHg 91%
05:00 +18°C° 0.2 mm 3 mps 742 mmHg 92%
06:00 +19°C° 0 mm 2 mps 741 mmHg 88%
07:00 +20°C° 0 mm 2 mps 741 mmHg 85%
08:00 +21°C° 0 mm 2 mps 741 mmHg 81%
09:00 +23°C° 0 mm 2 mps 741 mmHg 75%
10:00 +25°C° 0 mm 3 mps 741 mmHg 69%
11:00 +27°C° 0 mm 3 mps 741 mmHg 63%
12:00 +27°C° 0 mm 3 mps 741 mmHg 61%
13:00 +27°C° 0 mm 4 mps 741 mmHg 59%
14:00 +27°C° 0 mm 4 mps 741 mmHg 56%
15:00 +27°C° 0 mm 4 mps 741 mmHg 57%
16:00 +27°C° 0 mm 3 mps 741 mmHg 58%
17:00 +26°C° 0 mm 3 mps 741 mmHg 59%
18:00 +25°C° 0 mm 3 mps 741 mmHg 63%
19:00 +24°C° 0 mm 2 mps 741 mmHg 67%
20:00 +23°C° 0 mm 2 mps 741 mmHg 71%
21:00 +21°C° 0 mm 2 mps 741 mmHg 76%
22:00 +20°C° 0 mm 2 mps 741 mmHg 80%
23:00 +19°C° 0 mm 2 mps 741 mmHg 85%
Show more